User: anonymous   Login
Location: Unspecified
(0.0000°N, 0.0000°E)
Time: 19:58:16
(UTC+00:00)
Language:

ORS OBJECT Z - Orbit

View from above orbital plane
View from above orbital plane
View from above satellite
View from above satellite

Ground track
Ground track

The orbit data is extracted from the following two-line orbital elements,

1 39403U 13064Z   17269.06592304  .00009051  00000-0  16183-3 0  9994
2 39403  40.5234 152.1324 0005153 279.9826  80.0411 15.49960087214453
Epoch (UTC): 26 September 2017 01:34:55
Eccentricity: 0.0005153
inclination: 40.5234°
perigee height: 413 km
apogee height: 420 km
right ascension of ascending node: 152.1324°
argument of perigee: 279.9826°
revolutions per day: 15.49960087
mean anomaly at epoch: 80.0411°
orbit number at epoch: 21445

The dashed part of the orbit path shows where the satellite is in the earth's shadow,  

DLR